Le nostre stazioni meteo in Italia

Pubblicità
Il mio iltempo24.it
Cassley, Gran Bretagna (99003): Temperatura & dewpoint: 10.10.2018 03:00:00 - 16.10.2018 03:00:00 (BST)Cassley, Gran Bretagna (99003): precipitazioni: 10.10.2018 03:00:00 - 16.10.2018 03:00:00 (BST)
Data & Tempo tt [°C] td [°C] rr [mm]
16.10.2018 03:00:00 7,7 4,9 0,0
16.10.2018 02:00:00 8,1 4,9 0,0
16.10.2018 01:00:00 8,0 5,4 0,0
16.10.2018 00:00:00 7,7 5,4 0,0
15.10.2018 23:00:00 7,4 6,3 0,0
15.10.2018 22:00:00 7,2 5,6 0,0
15.10.2018 21:00:00 7,9 6,5 0,0
15.10.2018 20:00:00 7,4 5,1 0,0
15.10.2018 19:00:00 7,1 4,8 0,0
15.10.2018 18:00:00 8,2 4,9 0,0
15.10.2018 17:00:00 11,8 5,4 0,0
15.10.2018 16:00:00 11,9 5,9 0,0
15.10.2018 15:00:00 12,3 5,3 0,0
15.10.2018 14:00:00 11,4 7,3 0,0
15.10.2018 13:00:00 12,8 5,9 0,0
15.10.2018 12:00:00 12,8 6,0 0,0
15.10.2018 11:00:00 12,5 5,8 0,0
15.10.2018 10:00:00 11,5 6,3 0,0
15.10.2018 09:00:00 8,6 6,2 0,0
15.10.2018 08:00:00 8,1 5,1 0,0
15.10.2018 07:00:00 7,7 5,3 0,0
15.10.2018 06:00:00 8,1 4,9 0,0
15.10.2018 05:00:00 7,7 4,5 0,0
15.10.2018 04:00:00 8,2 4,5 0,0
15.10.2018 03:00:00 7,7 4,7 0,0
15.10.2018 02:00:00 7,7 4,6 0,0
15.10.2018 01:00:00 6,5 4,0 0,0
15.10.2018 00:00:00 6,6 4,2 0,0
14.10.2018 23:00:00 6,1 3,9 0,0
14.10.2018 22:00:00 5,9 3,5 0,0
14.10.2018 21:00:00 6,2 4,1 0,0
14.10.2018 20:00:00 5,7 3,4 0,0
14.10.2018 19:00:00 5,3 3,2 0,0
14.10.2018 18:00:00 6,9 4,0 0,0
14.10.2018 17:00:00 8,8 4,3 0,0
14.10.2018 16:00:00 11,4 3,1 0,0
14.10.2018 15:00:00 10,9 4,4 0,0
14.10.2018 14:00:00 10,4 4,1 0,0
14.10.2018 13:00:00 10,2 5,8 0,0
14.10.2018 12:00:00 8,5 6,9 0,0
14.10.2018 11:00:00 7,1 5,9 0,0
14.10.2018 10:00:00 6,9 5,8 0,0
14.10.2018 09:00:00 5,4 4,4 0,0
14.10.2018 08:00:00 5,7 4,2 0,2
14.10.2018 07:00:00 6,4 4,9 0,4
14.10.2018 06:00:00 6,5 5,6 0,8
14.10.2018 05:00:00 6,5 5,4 0,2
14.10.2018 04:00:00 6,6 5,5 0,2
14.10.2018 03:00:00 6,8 5,0 0,0
14.10.2018 02:00:00 7,3 5,6 0,2
14.10.2018 01:00:00 7,9 6,6 0,6
14.10.2018 00:00:00 8,0 7,1 0,4
13.10.2018 23:00:00 8,2 7,2 0,6
13.10.2018 22:00:00 8,1 7,5 2,2
13.10.2018 21:00:00 7,8 7,0 2,2
13.10.2018 20:00:00 8,6 7,8 2,4
13.10.2018 19:00:00 8,8 8,2 3,4
13.10.2018 18:00:00 8,7 8,0 3,8
13.10.2018 17:00:00 9,2 8,4 2,2
13.10.2018 16:00:00 9,4 8,9 1,4
13.10.2018 15:00:00 9,5 9,0 1,6
13.10.2018 14:00:00 9,6 8,8 1,2
13.10.2018 13:00:00 9,9 8,7 0,8
13.10.2018 12:00:00 10,3 7,8 0,0
13.10.2018 11:00:00 10,7 7,7 0,0
13.10.2018 10:00:00 10,3 6,9 0,0
13.10.2018 09:00:00 8,9 6,8 0,0
13.10.2018 08:00:00 8,7 5,8 0,0
13.10.2018 07:00:00 11,1 5,7 0,0
13.10.2018 06:00:00 10,9 5,7 0,0
13.10.2018 05:00:00 10,8 6,1 0,0
13.10.2018 04:00:00 11,2 6,3 0,0
13.10.2018 03:00:00 11,4 5,6 0,0
13.10.2018 02:00:00 11,6 5,9 0,2
13.10.2018 01:00:00 11,1 8,2 0,2
13.10.2018 00:00:00 12,1 7,4 0,0
12.10.2018 23:00:00 12,6 7,1 0,0
12.10.2018 22:00:00 12,7 6,0 0,0
12.10.2018 21:00:00 12,7 5,6 0,0
12.10.2018 20:00:00 10,6 7,6 0,0
12.10.2018 19:00:00 10,1 8,1 0,0
12.10.2018 18:00:00 10,6 8,4 0,0
12.10.2018 17:00:00 11,0 9,2 0,6
12.10.2018 16:00:00 13,6 7,4 0,0
12.10.2018 15:00:00 14,9 6,1 0,0
12.10.2018 14:00:00 14,6 7,1 0,0
12.10.2018 13:00:00 14,1 7,6 0,0
12.10.2018 12:00:00 12,8 10,4 0,2
12.10.2018 11:00:00 10,4 8,9 0,0
12.10.2018 10:00:00 10,1 7,9 0,0
12.10.2018 09:00:00 8,6 7,7 0,2
12.10.2018 08:00:00 8,7 7,5 0,8
12.10.2018 07:00:00 8,1 7,3 0,0
12.10.2018 06:00:00 7,9 7,4 0,0
12.10.2018 05:00:00 6,5 6,3 0,0
12.10.2018 04:00:00 4,9 4,7 0,0
12.10.2018 03:00:00 5,7 5,5 0,0
12.10.2018 02:00:00 5,9 5,2 0,0
12.10.2018 01:00:00 6,8 5,6 0,0
12.10.2018 00:00:00 7,0 5,8 0,0
11.10.2018 23:00:00 8,8 7,6 0,0
11.10.2018 22:00:00 10,9 8,8 0,0
11.10.2018 21:00:00 10,5 9,0 0,2
11.10.2018 20:00:00 12,0 10,0 1,2
11.10.2018 19:00:00 13,9 11,6 0,0
11.10.2018 18:00:00 13,8 11,9 0,0
11.10.2018 17:00:00 14,1 12,2 0,0
11.10.2018 16:00:00 14,8 12,7 0,0
11.10.2018 15:00:00 14,4 12,7 0,0
11.10.2018 14:00:00 14,9 12,9 0,0
11.10.2018 13:00:00 13,9 12,4 0,0
11.10.2018 12:00:00 13,8 12,1 0,0
11.10.2018 11:00:00 13,4 11,9 0,0
11.10.2018 10:00:00 12,2 11,5 0,0
11.10.2018 09:00:00 11,3 10,7 0,0
11.10.2018 08:00:00 11,0 10,4 0,2
11.10.2018 07:00:00 9,2 8,6 0,0
11.10.2018 06:00:00 9,8 9,0 0,0
11.10.2018 05:00:00 8,0 7,9 0,0
11.10.2018 04:00:00 7,6 7,2 0,0
11.10.2018 03:00:00 8,9 8,6 0,0
11.10.2018 02:00:00 7,8 7,1 0,0
11.10.2018 01:00:00 8,6 8,1 0,0
11.10.2018 00:00:00 8,4 7,5 0,0
10.10.2018 23:00:00 10,9 9,7 0,0
10.10.2018 22:00:00 12,7 10,5 0,0
10.10.2018 21:00:00 12,4 10,6 0,0
10.10.2018 20:00:00 13,2 10,9 0,0
10.10.2018 19:00:00 13,8 11,8 0,0
10.10.2018 18:00:00 15,2 11,5 0,0
10.10.2018 17:00:00 15,8 10,9 0,0
10.10.2018 16:00:00 19,0 11,5 0,0
10.10.2018 15:00:00 17,4 10,5 0,0
10.10.2018 14:00:00 16,1 10,3 0,0
10.10.2018 13:00:00 16,2 10,0 0,0
10.10.2018 12:00:00 16,9 9,8 0,0
10.10.2018 11:00:00 14,8 10,7 0,0
10.10.2018 10:00:00 14,1 10,9 0,0
10.10.2018 09:00:00 11,4 10,4 0,0
10.10.2018 08:00:00 10,5 9,7 0,0
10.10.2018 07:00:00 12,3 10,8 0,0
10.10.2018 06:00:00 12,7 12,1 0,0
10.10.2018 05:00:00 10,6 10,6 0,6
10.10.2018 04:00:00 10,2 10,2 0,0
10.10.2018 03:00:00 9,5 9,5 0,2

tt = Temperatura
td = dewpoint
rr = precipitazioni

Stazioni seguenti

WeatherPro
AMSI
MeteoEarth